Weather Roundup
Issued by NWS Springfield, MO

Home | Current Version | Previous Version | Text Only | Print | Product List | Glossary On
Versions: 1 2 3 4 5 6 7 8 9 10 11 12 13 14 15 16 17 18 19 20 21 22 23 24 25 26 27 28 29 30 31 32 33 34 35 36 37 38 39 40 41 42 43 44 45 46 47 48 49 50
000
NZUS99 KSGF 290959
HRRSGF

HOURLY WEATHER
NATIONAL WEATHER SERVICE SPRINGFIELD MO
500 AM CDT FRI MAY 29 2015

......SGF CWA......

CITY           SKY/WX    TMP DP  RH WIND       PRES   REMARKS
SPRINGFIELD    PTCLDY    66  61  84 S10       29.98S
JOPLIN         MOCLDY    68  63  84 SW7       29.97R
WEST PLAINS    MOCLDY    67  63  87 S6        30.02
ROLLA          CLOUDY    66  64  93 S10       29.99S
OSAGE BEACH    MOCLDY    64  61  88 S5        29.98R

......SURROUNDING SGF CWA......

CITY           SKY/WX    TMP DP  RH WIND       PRES   REMARKS
CHANUTE        TSTM      67  66  97 W9        29.98R FOG
PARSONS        CLOUDY    69  68  96 SW7       29.97R
COFFEYVILLE    CLOUDY    70  67  90 S9        29.94R
EMPORIA        CLOUDY    65  62  90 SE14      29.91F
SILOAM SPRINGS CLOUDY    68  61  77 SW8       30.01R
HARRISON AR    PTCLDY    64  61  90 SE7       30.01R
NEAR YELLVILLE PTCLDY    64  61  88 CALM      29.99R

......KANSAS AND MISSOURI......

CITY           SKY/WX    TMP DP  RH WIND       PRES   REMARKS
KANSAS CTY INT CLOUDY    63  63 100 S8        29.94R
DOWNTOWN KC    CLOUDY    65  62  90 S5        29.93S
COLUMBIA       CLOUDY    65  64  97 S7        29.97S
SEDALIA        CLOUDY    67  64  90 S6        29.97R
ST JOSEPH      PTCLDY    63  62  97 S6        29.93R
ST LOUIS       MOCLDY    72  65  78 S9        29.99S
SPIRIT OF STL  MOCLDY   N/A N/A N/A S5        29.98S
KIRKSVILLE     CLOUDY    65  64  97 E3        29.94F
WICHITA        CLOUDY    68  66  93 N3        29.92R
TOPEKA         LGT RAIN  67  65  93 SE8       29.92R
OLATHE         FOG       64  64 100 S8        29.93F VSB 1

......TENNESSEE......

CITY           SKY/WX    TMP DP  RH WIND       PRES   REMARKS
MEMPHIS        PTCLDY    71  66  84 SE8       30.03R
NASHVILLE      MOCLDY    66  65  96 S5        30.11F

......ARKANSAS.......

CITY           SKY/WX    TMP DP  RH WIND       PRES   REMARKS
FAYETTEVILLE   CLOUDY    67  65  93 S7        29.99R
FT SMITH       CLOUDY    68  64  87 E7        29.97R
LITTLE ROCK    CLOUDY    68  64  87 CALM      30.00F

......OKLAHOMA.......

CITY           SKY/WX    TMP DP  RH WIND       PRES   REMARKS
TULSA          LGT RAIN  70  68  93 SE7       29.94R
PONCA CITY     CLOUDY    71  67  87 S3        29.92R
MCALESTER      LGT RAIN  68  66  93 NW3       29.95F
OKLAHOMA CITY  CLOUDY    66  61  84 S10G17    29.93R

......IOWA............

CITY           SKY/WX    TMP DP  RH WIND       PRES   REMARKS
DES MOINES     PTCLDY    63  61  93 S8        29.93S
QUAD CITIES    CLOUDY    68  63  84 S5        29.96F

......ILLINOIS........

CITY           SKY/WX    TMP DP  RH WIND       PRES   REMARKS
QUINCY         LGT RAIN  68  65  90 S13G22    29.96S FOG
CHICAGO        CLOUDY    65  60  84 SE6       30.01F




USA.gov is the U.S. government's official web portal to all federal, state and local government web resources and services.